Theta_e
349 348 347 350 350 349 348 350 350 350 349 350 350 350 350 350 350 351 351 350 351 352 352 348 352 347 351 353 350 348 346 349 348 348 348 349 349 349 349 349 349 349 348 346 347 347 348 348 346 343 343 343 344 342 344 342 341 341 341 337 338 340
347 347 349 347 346 348 349 349 349 348 349 350 350 350 350 348 350 349 348 350 351 349 348 348 349 349 353 353 350 349 348 349 348 347 348 348 349 348 348 348 348 348 348 348 346 344 347 348 347 346 344 344 344 346 345 343 343 342 342 341 340 340
346 350 350 347 345 346 346 347 346 346 347 348 348 348 347 347 347 346 347 347 348 348 347 347 348 347 347 348 352 349 348 349 346 348 348 347 348 348 347 348 347 348 348 348 346 347 346 345 347 348 345 346 348 347 346 345 344 344 343 342 340 339
346 351 348 348 348 346 346 345 343 344 346 346 346 347 344 346 345 346 344 347 345 347 347 347 346 349 349 349 350 349 349 349 347 349 348 348 348 347 347 347 347 348 348 348 347 347 346 347 348 348 349 348 347 347 346 345 343 345 346 341 338 337
342 348 346 344 349 348 347 345 344 342 345 345 345 346 345 345 346 347 345 347 344 347 345 345 347 348 347 346 348 348 351 349 349 349 349 349 348 346 347 346 348 348 347 346 345 347 347 346 348 348 348 347 347 348 347 346 344 343 346 345 339 337
336 338 341 342 345 350 349 347 345 343 345 345 346 343 345 346 346 348 346 344 345 347 346 344 345 345 345 344 343 343 344 344 344 344 349 344 343 345 345 343 344 344 344 346 347 348 346 346 346 346 347 348 347 347 347 344 345 344 347 347 339 338
337 337 337 340 340 341 348 348 349 347 345 345 346 346 344 345 346 347 347 345 343 343 344 343 343 344 343 343 341 340 340 341 343 341 344 342 342 343 342 341 342 343 343 343 344 344 343 344 345 344 346 346 347 347 347 346 346 345 347 347 342 337
338 337 338 340 338 339 344 348 351 350 350 351 349 345 345 344 345 343 347 346 345 344 343 342 344 344 345 344 342 342 341 340 340 341 341 342 340 340 340 340 342 341 340 341 340 342 342 341 343 344 344 344 345 347 348 347 347 348 348 349 345 338
337 336 337 337 338 339 341 340 345 349 348 346 348 347 347 346 344 344 346 348 346 345 344 343 344 344 344 343 344 342 340 338 339 339 340 340 340 340 339 339 340 339 341 340 340 341 340 341 343 343 343 342 344 345 347 348 348 346 347 347 348 340
338 336 337 337 338 339 339 338 338 337 339 342 346 343 344 345 344 342 342 347 346 345 346 344 344 343 344 343 343 344 343 341 340 339 339 341 339 339 339 338 338 336 334 337 337 339 340 341 341 342 342 342 344 344 346 345 347 346 346 348 349 343
339 338 337 337 340 337 338 337 337 338 339 338 342 341 341 339 341 342 342 340 338 343 343 346 347 347 346 345 344 345 344 343 341 341 342 341 343 342 340 338 338 335 335 334 333 337 338 338 341 341 342 342 343 345 346 348 346 346 345 347 348 348
339 338 337 336 338 337 336 337 339 338 338 337 339 339 338 337 337 337 337 340 343 343 342 345 348 348 349 348 346 343 343 343 341 342 344 342 342 343 342 340 339 340 340 338 336 337 336 334 336 337 338 339 340 342 344 346 345 345 345 347 347 348
338 338 338 337 335 333 335 334 338 337 336 335 337 336 337 339 338 334 337 340 341 341 341 340 345 350 349 348 348 347 345 344 344 344 345 347 345 346 344 342 343 342 342 342 339 338 336 335 335 333 334 336 337 336 338 341 345 346 345 347 347 347
335 335 337 335 334 334 334 334 335 336 336 336 337 338 337 338 338 339 339 340 339 341 342 344 343 349 349 348 348 347 346 345 345 346 345 346 343 343 342 342 341 341 341 339 336 339 338 336 332 330 332 332 335 337 337 337 340 341 343 345 347 349
336 333 333 334 334 333 333 335 334 336 335 337 336 337 337 338 339 340 340 338 339 340 338 337 340 343 348 347 348 345 345 346 348 349 346 346 343 342 342 341 340 339 341 339 337 338 338 334 332 330 331 331 329 330 336 336 337 339 338 342 344 346
336 333 333 334 334 335 335 334 335 335 336 335 336 336 338 339 339 338 339 340 340 338 339 340 340 341 341 344 342 345 346 347 348 348 348 347 345 343 341 341 341 341 339 337 336 337 339 337 335 331 331 333 330 330 331 332 334 334 336 338 339 341
333 334 335 336 336 334 333 334 334 334 336 337 335 335 337 337 338 338 340 342 343 342 340 338 340 338 337 338 338 339 345 348 349 347 347 348 345 346 344 340 341 340 340 338 337 336 336 338 337 336 334 335 333 332 330 331 331 334 333 335 337 337
329 330 331 333 335 337 338 338 337 337 338 338 336 337 337 337 336 337 338 339 342 341 339 338 339 339 338 338 338 337 337 340 348 348 347 347 344 345 343 345 342 341 339 338 336 335 335 337 337 335 335 334 336 332 332 332 332 332 332 331 335 336
328 327 328 332 334 334 335 336 337 336 337 337 338 340 340 341 341 341 341 340 340 341 341 340 340 338 337 338 337 338 337 340 341 345 346 346 343 342 341 341 340 339 340 339 338 338 336 336 335 335 332 334 337 338 336 334 334 330 330 330 330 333
326 326 326 327 327 329 332 332 332 334 333 333 335 336 337 338 339 339 340 341 340 342 340 340 338 339 338 337 337 340 341 342 341 342 342 343 343 340 340 340 339 339 337 336 338 338 339 337 336 337 337 338 338 339 336 336 335 331 331 330 329 329
324 324 323 322 322 323 322 325 329 328 329 330 332 334 335 337 337 339 339 340 340 340 341 340 339 339 338 336 337 339 340 341 341 343 339 339 342 342 341 342 339 339 336 335 335 338 337 337 334 333 337 338 339 341 340 339 337 334 331 330 330 330
322 323 322 322 322 321 321 321 324 322 326 329 331 332 333 335 336 336 337 338 339 339 340 341 341 341 338 338 337 338 339 342 346 342 339 338 339 340 341 338 340 338 339 336 335 335 336 335 331 329 329 330 334 337 339 340 337 335 333 331 331 332
321 320 321 322 321 320 321 322 323 322 323 325 331 325 328 331 330 329 330 332 334 337 338 339 340 340 340 338 339 340 339 339 342 340 336 335 337 339 341 341 342 338 336 337 336 337 338 338 330 332 331 329 326 327 333 336 339 338 336 335 332 331
319 320 319 321 322 323 322 323 324 325 325 323 322 324 327 328 326 326 326 328 329 330 330 333 337 339 340 340 340 340 340 339 338 339 337 335 336 338 339 342 342 341 340 336 335 335 338 339 335 331 325 327 327 327 322 327 333 337 338 336 333 331
318 319 320 321 321 322 322 321 323 325 326 326 326 324 323 321 322 323 323 324 326 326 327 328 331 335 338 339 341 340 338 340 337 337 336 334 336 336 335 340 342 340 338 338 337 337 338 338 338 338 331 328 326 325 324 327 332 334 339 335 334 332
318 318 318 320 320 320 319 317 317 315 314 315 314 318 316 316 317 318 318 322 324 324 324 326 328 330 332 337 341 341 340 340 339 335 337 337 337 337 336 336 339 339 338 343 339 336 335 338 339 339 338 336 334 328 329 331 329 325 338 338 335 334
318 319 319 319 320 319 317 317 317 316 316 315 313 316 318 320 319 319 320 321 321 324 324 324 327 329 331 332 335 339 341 341 340 339 337 338 337 335 335 336 341 337 338 338 340 334 334 338 339 340 339 339 339 338 337 333 329 330 327 333 335 334
319 319 319 319 318 319 316 317 316 316 316 315 314 316 317 318 320 321 320 321 322 322 323 323 323 325 329 330 331 333 337 339 339 340 340 339 338 337 337 339 340 338 339 337 334 333 338 342 336 335 339 337 338 338 336 337 335 333 330 328 330 334
319 319 319 319 318 318 317 317 317 316 315 316 316 316 316 318 318 320 320 322 323 323 324 326 325 326 327 329 330 330 332 333 337 340 341 338 338 336 335 334 336 335 334 336 338 338 340 338 337 335 338 339 337 335 335 336 336 336 330 329 328 329
318 317 319 319 319 318 318 318 316 316 315 315 315 316 317 316 318 319 319 320 321 322 322 322 324 325 326 325 325 327 328 330 334 336 339 341 339 338 338 335 335 337 336 336 342 338 337 339 340 338 338 339 338 337 334 334 334 333 333 332 328 328
317 317 318 318 318 317 317 316 316 315 316 315 315 316 315 315 316 317 317 319 319 320 321 322 323 324 324 324 325 325 326 330 332 335 335 338 340 340 339 338 339 339 340 339 339 338 337 342 342 340 336 335 335 338 336 333 332 333 333 332 330 329
317 317 317 317 317 316 316 316 316 316 315 316 316 315 314 314 315 315 317 317 318 318 320 320 322 321 323 323 323 323 325 328 331 332 333 336 337 336 339 340 339 338 338 337 338 340 337 337 336 341 340 338 335 336 340 338 337 337 335 334 333 330
315 316 316 317 316 316 316 315 315 315 315 316 315 316 316 315 316 315 316 316 317 316 317 318 319 320 321 322 322 322 324 325 327 330 331 331 333 334 338 337 339 339 338 336 336 338 334 334 339 337 337 338 339 337 336 340 340 338 338 339 335 330
315 316 316 316 315 315 315 316 316 315 315 314 314 316 315 315 316 316 316 316 316 316 317 318 318 319 320 320 320 320 320 320 321 321 322 324 329 332 334 335 337 338 336 336 336 337 339 340 340 339 339 338 339 337 336 338 340 340 338 337 335 333
315 316 316 316 316 315 314 315 315 314 314 315 314 314 314 315 316 316 316 316 317 317 317 318 318 320 320 320 320 320 320 320 320 321 322 323 325 332 335 335 335 335 337 338 338 340 338 336 339 337 336 338 337 336 335 334 339 341 339 338 338 338
315 316 316 315 315 315 315 315 315 315 315 315 315 315 315 315 316 316 317 316 317 318 318 318 319 319 319 319 318 318 318 318 319 320 321 322 323 327 330 332 334 336 336 337 337 338 338 337 340 339 338 338 336 335 337 338 341 339 339 340 340 340
316 316 316 315 315 315 315 314 314 314 314 314 314 314 313 314 315 317 317 316 316 316 318 318 318 319 317 318 318 318 317 318 318 319 320 321 321 323 324 327 330 332 334 336 337 338 340 339 340 340 339 337 336 338 339 338 338 337 340 342 341 340
Wind_Speed
13 14 14 13 13 14 16 20 17 17 17 16 16 16 14 15 15 15 14 14 12 10 11 10 11 10 13 11 11 12 10 12 12 12 11 12 11 12 12 11 10 10 11 10 8 7 7 7 9 9 10 10 10 8 4 2 3 3 3 6 5 8
10 13 12 11 10 11 14 17 16 14 13 15 15 15 13 12 13 11 13 12 11 10 9 9 10 10 9 9 11 11 12 12 11 12 11 11 11 11 11 11 11 10 10 10 10 8 7 7 8 10 10 11 9 5 4 3 2 3 3 4 4 12
9 9 10 11 8 10 15 13 15 14 12 14 14 14 13 13 12 12 12 12 10 9 9 8 8 9 9 12 9 12 13 10 11 12 11 11 11 10 11 11 11 11 11 11 10 6 6 6 7 10 11 9 5 4 4 4 4 3 3 4 4 16
6 8 6 6 8 9 10 12 12 12 10 11 12 11 12 12 12 12 12 10 9 8 9 7 8 10 9 10 10 13 13 12 13 12 13 11 11 11 11 10 10 11 10 9 8 6 5 5 5 6 7 7 5 4 4 4 4 3 3 4 6 17
7 2 5 5 7 6 9 9 10 11 10 10 10 10 10 11 11 11 11 9 10 9 8 8 8 8 8 7 9 10 10 10 10 11 14 10 10 10 10 9 9 10 8 8 7 5 4 4 3 4 4 5 4 4 5 4 3 3 3 4 9 16
7 9 5 3 3 2 8 8 10 10 9 8 9 9 8 8 9 10 9 9 8 8 8 8 8 9 9 8 8 8 8 8 9 8 10 8 8 9 9 8 9 9 7 6 5 5 5 4 4 4 4 4 4 4 4 4 4 3 3 3 10 16
4 3 5 6 6 5 4 4 7 9 9 8 7 7 7 7 8 9 9 9 8 8 8 8 8 9 9 8 8 7 8 8 8 8 9 8 9 8 8 8 8 7 7 7 6 6 5 6 4 4 4 4 4 4 4 4 4 4 3 3 10 16
4 5 4 6 4 5 5 4 1 6 6 5 5 6 6 6 6 7 8 8 8 7 8 8 9 9 9 8 8 8 7 7 7 7 7 8 7 7 7 7 7 8 8 6 7 7 6 6 6 5 4 5 5 4 4 4 3 3 3 4 7 14
7 6 5 5 4 1 5 7 3 1 3 3 4 4 1 5 5 5 6 7 8 7 8 8 9 9 8 9 8 8 7 7 7 8 7 7 7 7 7 6 6 7 7 6 6 6 6 6 6 6 5 6 6 5 4 5 4 5 5 4 5 12
9 5 5 5 5 4 5 7 6 8 7 6 2 2 2 1 2 3 6 5 5 8 8 8 9 9 9 9 8 8 8 8 8 7 7 8 7 6 6 6 6 7 8 7 7 7 6 6 6 6 6 6 6 5 5 5 5 5 5 5 4 11
7 9 6 5 4 8 7 7 5 2 3 6 6 3 3 4 3 4 4 5 8 10 9 8 7 8 7 8 8 8 8 8 8 8 7 8 7 7 6 6 7 7 6 7 7 6 7 6 7 7 7 7 6 6 6 5 5 6 6 5 5 6
6 6 8 6 3 7 8 7 3 2 3 2 3 2 4 2 3 4 9 8 6 6 7 10 8 8 8 8 8 8 8 8 8 8 8 7 7 7 7 7 8 7 6 5 6 6 7 6 7 7 7 8 8 7 6 6 6 6 6 5 5 6
9 7 8 9 7 5 5 2 2 4 4 4 2 2 3 5 6 7 8 7 5 7 9 8 9 9 9 8 8 8 8 8 8 7 7 8 8 7 7 7 7 6 6 6 5 6 6 7 7 7 7 8 7 8 7 7 6 6 6 6 6 6
12 10 9 8 8 8 5 3 3 3 4 3 2 3 4 5 5 7 8 6 5 5 6 8 11 8 8 7 8 9 10 9 8 8 8 8 7 7 7 7 7 7 7 7 7 6 6 7 7 7 7 7 7 7 7 7 7 7 7 7 7 6
8 11 8 8 7 8 8 7 5 1 1 2 4 5 5 4 6 5 4 3 3 2 3 5 9 11 7 9 8 8 9 9 8 8 8 7 8 8 8 8 7 7 7 7 7 7 8 8 8 8 8 8 8 7 7 7 7 8 8 8 7 8
7 7 8 6 5 6 8 7 4 2 3 4 4 4 4 5 5 4 4 3 4 5 7 6 4 6 7 8 8 9 8 8 9 8 8 8 8 9 9 9 9 8 7 8 8 8 7 8 8 9 9 8 8 8 7 8 8 9 9 8 8 8
11 11 11 8 6 5 5 6 6 5 5 4 4 4 4 4 4 5 4 5 6 6 5 5 5 5 5 4 5 9 9 8 8 8 7 7 9 9 10 10 10 10 9 7 8 9 9 8 8 9 9 9 9 8 8 8 9 9 9 9 9 9
8 8 7 8 7 6 5 5 4 5 4 3 2 2 2 3 3 4 5 5 8 7 4 6 7 8 7 6 7 7 8 13 9 8 8 8 10 10 11 10 10 10 10 10 10 10 10 8 8 8 9 10 9 8 9 9 8 8 9 10 10 10
9 8 6 6 7 6 5 4 3 2 1 1 1 1 2 3 2 4 4 5 6 7 6 7 8 8 7 7 8 7 7 11 12 10 8 9 11 11 11 11 12 11 10 11 11 10 10 9 9 9 9 10 9 10 8 9 9 9 9 11 10 10
9 6 5 5 4 4 4 4 3 2 2 2 2 2 3 3 4 4 4 5 6 5 6 6 6 6 6 6 7 7 8 7 9 10 11 11 10 11 13 13 12 12 12 12 11 10 9 9 9 9 9 7 8 10 11 10 10 11 10 11 11 10
8 7 6 6 6 5 4 3 3 3 3 2 3 3 3 3 3 3 5 6 6 5 5 6 5 7 8 8 8 8 8 10 9 8 9 10 11 12 13 12 12 11 12 12 12 11 10 9 9 9 8 10 9 10 11 10 11 11 12 11 10 10
7 7 7 6 4 4 4 3 2 2 1 1 1 2 3 3 3 3 5 6 6 7 7 6 6 6 7 9 8 8 9 10 7 8 10 12 12 12 13 14 12 11 12 13 12 13 11 9 10 10 9 9 9 10 12 12 13 13 13 12 11 11
7 6 5 4 3 3 2 2 2 1 0 0 1 1 2 2 2 3 3 3 4 5 6 8 7 7 6 7 9 8 7 9 9 8 9 10 12 16 15 15 13 11 11 12 12 11 12 12 10 10 9 8 9 9 9 11 11 13 13 13 12 13
7 7 6 5 4 3 2 2 3 2 1 2 1 1 2 2 2 3 4 4 4 4 6 7 7 7 6 6 6 7 6 8 9 7 8 10 12 11 13 13 12 12 11 10 11 12 13 13 11 9 10 11 9 8 9 10 10 10 13 14 14 13
7 7 6 6 5 4 4 3 3 2 2 1 1 1 2 2 3 3 4 4 4 6 6 6 7 8 7 8 8 7 8 7 7 8 9 10 11 9 12 12 11 9 13 12 11 9 11 13 14 11 9 9 9 9 10 7 7 7 9 10 14 14
7 7 7 7 6 5 6 6 6 6 6 6 5 5 5 6 6 5 5 5 6 7 7 7 7 8 9 8 8 8 8 7 7 9 8 8 10 9 11 12 15 10 15 12 10 10 12 11 13 14 13 11 8 6 6 8 8 7 8 8 9 12
7 6 6 6 6 4 5 5 5 4 4 5 6 5 5 5 5 6 5 6 7 7 7 8 8 8 8 9 9 8 8 8 7 6 8 10 10 12 10 12 9 10 11 11 10 10 14 11 11 12 13 14 14 11 9 6 7 5 7 8 8 8
6 6 5 5 6 5 4 4 4 4 3 3 5 6 7 6 6 6 7 7 6 6 7 7 8 9 9 9 9 9 9 8 7 7 6 7 10 11 11 11 8 10 11 8 12 13 13 8 6 10 11 13 13 14 15 14 13 9 7 6 8 8
6 6 5 5 5 5 4 3 3 4 3 3 3 4 6 6 7 7 8 7 6 7 7 7 7 8 9 9 9 9 9 9 8 8 8 8 9 11 11 12 10 9 11 13 12 13 10 10 9 9 10 12 12 12 12 14 14 13 12 10 10 9
5 4 4 4 4 4 4 3 3 3 4 4 4 4 4 5 6 6 8 8 7 6 6 6 6 7 8 9 10 10 10 10 10 9 8 9 10 9 9 9 11 10 12 16 9 9 11 10 7 10 11 9 9 10 12 12 13 13 14 14 11 10
4 4 3 4 4 4 3 4 3 4 4 4 5 5 5 5 5 6 7 8 8 7 7 7 6 7 8 9 9 10 9 10 10 9 9 10 10 9 9 10 11 14 13 11 10 12 12 13 11 11 10 10 12 10 10 11 12 12 12 11 12 13
4 3 3 2 3 4 3 3 4 4 4 5 5 4 6 6 6 6 6 7 7 7 8 7 7 7 7 8 9 9 10 10 10 10 10 9 10 11 10 10 9 8 9 12 13 11 15 12 16 11 11 9 10 13 11 11 11 10 11 12 12 11
4 3 2 2 2 3 3 4 4 4 5 5 5 6 6 6 6 6 6 6 7 7 7 7 8 8 8 9 8 9 9 9 9 9 10 10 10 11 11 9 9 11 10 12 12 13 14 16 15 13 10 11 9 10 14 13 11 11 11 10 11 11
4 3 2 1 1 2 2 3 4 4 5 5 6 6 6 6 6 6 6 7 7 7 7 8 8 9 8 9 8 9 10 11 11 12 12 13 13 12 11 11 11 11 12 11 11 17 16 16 13 14 11 9 9 8 11 15 12 12 12 11 11 12
3 3 2 1 1 2 3 3 4 5 5 5 6 6 6 6 6 7 7 8 8 7 8 8 8 8 9 10 10 10 11 11 11 12 12 12 12 12 12 12 11 12 10 10 13 11 10 14 13 13 14 11 10 12 13 14 15 13 13 12 11 11
2 2 1 1 1 1 2 3 4 6 6 6 6 7 7 6 7 7 9 8 9 9 8 8 9 9 10 11 12 13 12 12 11 12 12 12 13 12 12 12 12 11 13 10 13 16 13 16 17 18 15 11 10 13 13 14 9 12 15 12 11 11
3 2 1 1 2 2 3 4 4 5 6 7 8 8 8 9 9 8 9 9 9 10 10 10 9 9 11 11 12 12 13 13 12 13 13 13 13 14 14 13 13 13 13 13 13 15 13 13 14 15 12 14 12 11 12 13 9 12 14 12 12 11
Wind_Direction
173 172 173 172 162 159 154 154 159 164 170 169 169 170 169 169 168 169 173 173 173 191 183 183 184 188 173 181 181 163 188 157 166 162 162 157 158 161 161 161 162 159 158 156 164 157 150 155 166 168 163 164 167 196 195 130 167 138 134 129 168 115
170 172 174 178 164 159 157 159 162 164 173 170 172 172 174 174 175 173 179 174 186 189 196 186 194 181 198 166 189 161 185 166 163 166 152 158 156 160 161 163 168 168 163 163 166 185 168 161 166 175 177 172 189 206 153 171 169 168 131 133 156 121
181 167 180 190 176 161 161 161 161 165 172 174 175 179 176 179 179 181 183 186 188 193 195 194 192 198 187 175 179 174 177 169 173 158 160 159 159 157 159 163 167 172 176 175 188 204 195 171 165 174 181 190 208 197 155 171 183 172 178 114 123 131
225 173 179 214 182 165 166 161 157 164 169 174 178 184 181 184 183 187 185 188 190 192 197 194 190 191 205 187 167 181 174 167 186 166 165 172 161 163 161 158 163 172 188 196 208 202 197 183 174 180 191 200 208 167 179 184 197 170 188 148 131 142
293 197 196 236 202 171 167 159 157 161 169 175 175 185 186 188 187 187 186 188 190 192 193 199 188 195 207 202 179 184 178 188 187 187 177 198 187 173 186 186 175 188 205 207 210 206 214 192 198 195 204 219 206 172 196 200 188 190 176 155 122 150
11 12 343 338 313 243 179 159 157 155 164 175 180 184 190 189 193 192 192 191 193 190 196 200 190 198 202 205 200 197 195 198 200 200 190 211 205 193 197 194 197 202 207 208 216 210 205 214 203 212 220 207 222 196 210 197 186 200 181 157 136 154
82 25 29 22 26 311 305 186 164 150 156 165 180 187 194 196 198 191 196 195 191 197 197 199 192 196 203 202 208 205 199 201 202 207 195 212 209 196 202 198 199 200 210 207 201 209 200 199 226 209 205 218 221 212 221 210 187 194 186 179 140 161
91 82 59 26 28 334 294 295 154 143 146 118 153 187 201 207 210 202 205 199 200 204 200 202 196 196 201 204 207 209 208 204 205 209 197 216 208 204 206 204 197 197 204 209 205 202 199 197 198 231 211 210 210 217 219 229 206 196 193 193 147 164
100 95 95 64 358 344 348 325 269 243 157 116 162 164 90 15 338 288 224 214 212 211 207 206 198 197 199 205 205 205 209 210 206 211 199 214 210 206 209 206 202 204 197 199 207 210 210 199 194 202 213 213 214 210 206 217 214 204 203 189 190 160
100 81 81 70 42 29 28 24 21 6 344 344 342 49 18 185 192 236 300 303 294 233 224 210 200 199 196 200 204 203 208 210 205 210 203 208 210 207 206 205 205 210 199 199 199 198 212 212 207 204 203 216 203 215 205 219 208 210 201 192 201 149
107 117 106 68 62 55 59 47 29 35 285 340 336 348 24 13 331 285 230 214 223 265 245 225 212 202 202 198 201 204 208 209 209 207 208 208 206 208 207 208 210 208 212 201 199 187 204 207 211 211 203 217 209 209 207 210 223 211 210 193 193 172
127 114 107 102 34 68 59 55 20 297 146 79 22 121 122 176 249 317 290 249 241 243 264 256 223 212 211 204 203 205 206 207 210 207 207 210 205 208 210 210 209 209 217 216 197 194 202 212 210 214 204 207 214 210 210 205 214 206 216 199 198 194
127 121 126 137 136 109 109 163 189 246 120 126 153 263 144 175 185 206 233 265 263 249 259 255 252 223 216 213 212 210 212 207 211 212 205 206 213 204 214 210 209 211 204 211 212 200 202 209 211 214 218 205 211 215 215 205 204 216 204 204 207 198
125 127 133 132 134 121 129 156 270 283 96 124 157 234 229 225 216 204 206 192 187 244 265 275 274 254 235 233 223 217 215 215 215 208 210 202 207 210 209 210 207 205 204 211 209 206 203 209 212 211 215 222 213 218 221 215 210 207 212 212 200 207
122 126 125 134 133 126 144 169 202 206 110 163 211 220 226 224 231 258 271 277 302 291 248 242 265 274 293 257 242 230 225 219 214 213 217 211 216 213 211 206 205 212 202 214 218 204 210 215 214 215 210 216 218 212 221 229 217 222 212 213 215 208
78 100 115 113 115 130 145 152 166 183 201 223 241 251 252 246 248 264 281 285 248 229 236 244 256 282 258 273 263 255 237 234 220 215 219 218 219 225 221 218 210 209 210 214 217 212 206 216 216 218 213 212 216 218 217 218 224 224 222 219 214 214
54 67 84 92 104 113 127 133 142 163 195 213 233 255 260 261 273 277 270 263 252 250 258 287 294 281 254 261 283 291 295 254 233 227 217 221 225 224 225 219 222 223 221 222 220 219 213 210 215 218 219 211 217 213 222 223 221 225 231 224 223 217
70 60 63 83 79 79 99 117 133 140 147 167 213 240 248 251 260 257 260 258 263 261 260 264 261 258 267 264 262 265 258 275 257 239 233 223 227 224 227 223 223 221 224 226 230 226 220 212 213 215 214 216 218 219 220 224 227 229 231 231 223 228
53 49 48 58 81 89 85 84 89 109 122 116 192 202 244 253 256 264 256 256 265 264 249 245 247 252 259 256 245 235 250 259 262 246 237 242 240 235 234 226 224 223 223 229 231 234 233 223 222 220 221 215 214 217 222 222 225 228 231 237 237 228
49 41 45 47 53 66 67 59 60 56 57 23 326 302 303 305 303 305 302 274 256 255 256 241 239 230 250 259 253 241 234 252 275 270 253 241 243 239 230 226 223 225 222 226 228 237 230 228 228 226 229 238 225 226 221 217 222 228 230 232 234 236
54 45 39 41 36 32 39 59 55 37 22 357 342 333 322 319 316 316 311 309 300 289 282 268 239 248 233 247 253 254 250 243 234 247 262 259 251 249 240 228 223 218 222 224 226 220 227 225 223 224 223 228 233 231 234 228 224 225 229 231 230 228
62 56 49 39 37 40 34 30 16 53 346 332 358 345 327 333 340 322 330 318 305 300 288 271 264 241 231 226 240 251 256 254 239 239 249 255 254 245 249 242 229 224 218 221 226 225 219 217 219 222 217 218 228 232 228 228 230 229 231 228 224 224
74 72 64 50 44 47 9 341 327 32 312 282 118 349 306 328 326 326 316 314 307 311 301 290 278 269 266 242 240 240 235 250 249 240 242 249 253 242 231 232 229 229 224 225 227 224 220 211 225 209 220 239 235 232 215 224 230 235 230 229 223 222
86 83 74 59 58 55 21 316 315 320 331 310 343 289 271 251 293 307 308 305 299 307 307 298 288 279 263 264 253 240 246 237 247 247 245 255 259 262 254 235 232 230 238 236 224 218 214 211 222 208 211 213 221 223 238 219 221 222 228 226 224 225
88 81 71 57 50 35 28 21 1 312 301 318 218 326 317 323 329 313 301 298 303 304 296 290 294 287 273 266 260 247 237 226 237 245 244 247 255 263 267 266 236 231 239 236 231 236 223 217 214 221 224 207 211 219 229 230 209 221 207 219 221 225
93 84 77 67 54 48 40 27 13 10 3 356 353 359 353 341 333 330 323 312 296 297 295 290 283 287 290 283 268 257 254 245 235 234 235 241 250 240 253 252 247 221 235 235 248 237 238 217 218 213 225 235 238 228 216 218 222 214 181 219 222 222
94 91 84 74 62 59 56 49 40 29 10 353 341 339 338 325 316 315 311 308 305 297 290 289 287 286 283 283 282 273 260 250 241 230 238 243 244 246 240 247 252 239 227 238 225 234 247 222 214 221 224 229 238 244 249 232 216 222 213 201 222 220
91 86 80 75 72 61 57 48 46 32 4 351 341 321 323 323 314 306 305 305 305 299 297 292 288 284 284 284 280 281 277 264 252 233 223 234 246 251 253 256 258 261 272 256 240 230 230 251 251 232 224 234 232 236 241 241 247 253 248 223 197 214
88 87 84 74 67 63 56 48 30 19 5 346 324 311 312 313 317 314 305 304 299 300 295 294 293 290 285 284 289 287 285 280 268 254 232 229 238 242 246 250 251 250 240 247 255 241 232 230 227 255 236 223 233 230 230 234 241 239 240 240 238 229
91 81 77 73 68 63 56 38 31 10 348 339 336 320 305 308 306 311 310 311 306 302 303 302 300 297 296 293 289 289 284 281 280 274 261 251 239 234 237 246 250 244 247 247 245 277 276 251 232 243 259 260 218 229 232 232 230 232 236 239 242 234
95 91 78 59 46 46 42 25 15 355 337 327 325 314 313 310 306 304 307 312 311 312 307 303 303 301 299 298 298 291 284 282 283 282 273 263 253 243 233 234 242 249 251 252 250 238 240 248 243 237 236 246 255 237 225 227 227 225 229 227 226 236
117 101 89 66 43 29 19 19 358 341 332 327 318 312 313 307 307 306 299 299 306 307 308 305 300 298 300 307 306 297 290 282 277 278 282 279 274 268 254 242 238 234 241 248 247 242 246 245 241 238 230 230 238 252 248 235 231 229 226 230 228 231
126 127 102 84 46 16 6 1 352 335 332 323 316 311 305 305 306 302 305 301 301 298 299 301 304 304 300 303 304 302 299 296 290 285 288 290 283 276 274 260 240 236 231 241 246 244 243 240 236 232 230 229 228 243 248 243 240 236 231 232 232 236
138 145 138 139 26 360 348 345 337 330 326 322 319 311 308 306 310 306 306 303 299 297 292 289 293 294 302 303 300 299 294 289 285 280 279 280 281 277 270 264 256 251 243 237 240 245 244 246 243 240 232 233 220 228 250 257 241 232 230 227 229 232
169 159 169 183 228 330 337 331 326 328 323 321 317 315 309 308 304 304 302 300 296 293 291 290 288 291 292 296 298 298 296 289 287 284 280 275 275 275 271 266 258 253 247 241 243 241 250 254 244 241 243 231 229 227 240 248 245 236 227 229 230 229
196 171 199 221 309 313 320 322 316 314 315 314 312 310 305 307 306 303 303 299 294 290 290 292 290 292 294 296 299 300 298 293 289 287 286 278 273 270 271 270 264 255 249 244 245 244 238 240 243 243 243 236 236 238 233 243 246 247 240 232 228 233
211 210 233 299 315 319 315 309 315 313 309 312 308 307 308 305 302 298 300 303 301 301 298 296 295 293 297 296 296 297 298 296 292 288 283 279 274 267 267 268 266 262 255 251 247 242 238 241 244 241 241 239 235 241 247 244 242 263 257 234 235 231